Faith, SD

4:30 AM MST on February 22, 2017 (GMT -0700)
Faith

Weather History for KD07 - February, 2013

Change the Weather History Date:

Tuesday, February 26, 2013

  Actual Average Record
Temperature  
Mean Temperature 32 °F 26 °F  
Max Temperature 46 °F 36 °F 60 °F (2016)
Min Temperature 17 °F 17 °F -9 °F (2011)
Degree Days  
Heating Degree Days 33 38  
Month to date heating degree days 956 1084  
Since 1 July heating degree days 5272 5613  
Cooling Degree Days 0 0  
Month to date cooling degree days 0 0  
Year to date cooling degree days 0 0  
Moisture  
Dew Point 21 °F    
Average Humidity 63    
Maximum Humidity 92    
Minimum Humidity 33    
Precipitation  
Precipitation 0.00 in 0.01 in 0.04 in (2011)
Month to date precipitation 0.19 0.40  
Year to date precipitation 0.57 0.60  
Sea Level Pressure  
Sea Level Pressure 30.00 in    
Wind  
Wind Speed 10 mph (North)    
Max Wind Speed 26 mph    
Max Gust Speed 31 mph    
T = Trace of Precipitation, MM = Missing Value Source: NWS Daily Summary

Daily Weather History Graph

Daily Weather History Graph

Search for Another Location

Airport or City:

Trip Planner

Search our weather history database for the weather conditions in past years. The results will help you decide how hot, cold, wet, or windy it might be!

Date:

Astronomy

Feb. 26, 2013 Rise Set
Actual Time 6:30 AM MST 5:31 PM MST
Civil Twilight 6:01 AM MST 6:01 PM MST
Nautical Twilight 5:27 AM MST 6:35 PM MST
Astronomical Twilight 4:53 AM MST 7:09 PM MST
Moon 6:56 PM MST (2/26) 6:29 AM MST (2/26)
Length of Visible Light 12h 00m
Length of Day
11h 01m
Full, 99% of the Moon is Illuminated
Feb 26
Full
Mar 4
Last Quarter
Mar 11
New
Mar 19
First Quarter
Mar 27
Full

Hourly Weather History & Observations

Time (MST) Temp. Windchill Dew Point Humidity Pressure Visibility Wind Dir Wind Speed Gust Speed Precip Events Conditions
12:56 AM 24.1 °F 14.4 °F 19.0 °F 81% 29.90 in - SE 9.2 mph - N/A   Unknown
1:56 AM 23.0 °F 11.7 °F 19.0 °F 85% 29.88 in - SE 11.5 mph - N/A   Unknown
2:56 AM 24.1 °F 11.5 °F 19.0 °F 81% 29.88 in - SE 15.0 mph - N/A   Unknown
3:56 AM 23.0 °F 10.6 °F 19.0 °F 85% 29.89 in - SE 13.8 mph - N/A   Unknown
4:56 AM 21.9 °F 13.4 °F 18.0 °F 85% 29.91 in - SE 6.9 mph - N/A   Unknown
5:56 AM 19.9 °F 13.4 °F 17.1 °F 89% 29.94 in - SE 4.6 mph - N/A   Unknown
6:56 AM 17.1 °F 7.6 °F 15.1 °F 92% 29.96 in - NW 6.9 mph - N/A   Unknown
7:56 AM 24.1 °F 19.7 °F 19.0 °F 81% 29.96 in - NNW 3.5 mph - N/A   Unknown
8:56 AM 27.0 °F 20.5 °F 21.0 °F 78% 29.96 in - NNW 5.8 mph - N/A   Unknown
9:56 AM 32.0 °F 24.8 °F 23.0 °F 69% 29.97 in - NNW 8.1 mph - N/A   Unknown
10:56 AM 39.0 °F 36.8 °F 21.9 °F 50% 29.97 in - Variable 3.5 mph - N/A   Unknown
12:56 PM 45.0 °F 43.5 °F 19.0 °F 36% 29.96 in - Variable 3.5 mph - N/A   Unknown
1:56 PM 45.0 °F 40.6 °F 18.0 °F 34% 29.96 in - NNE 8.1 mph - N/A   Unknown
2:56 PM 46.0 °F 42.5 °F 19.0 °F 34% 29.97 in - NNW 6.9 mph - N/A   Unknown
3:56 PM 46.0 °F 39.6 °F 23.0 °F 40% 29.99 in - North 15.0 mph - N/A   Unknown
4:56 PM 42.1 °F 34.5 °F 25.0 °F 51% 30.02 in - North 15.0 mph - N/A   Unknown
5:56 PM 39.0 °F 30.6 °F 25.0 °F 57% 30.06 in - North 15.0 mph - N/A   Unknown
6:56 PM 36.0 °F 25.6 °F 27.0 °F 70% 30.11 in - NNW 18.4 mph - N/A   Unknown
7:56 PM 33.1 °F 21.5 °F 26.1 °F 75% 30.14 in - North 19.6 mph - N/A   Unknown
8:56 PM 32.0 °F 21.6 °F 26.1 °F 79% 30.16 in - NNW 15.0 mph 23.0 mph N/A   Unknown
9:56 PM 30.0 °F - 25.0 °F 82% 30.16 in - North - - N/A   Unknown
10:56 PM 30.0 °F - 25.0 °F 82% 30.16 in - North - - N/A   Unknown
11:56 PM 30.0 °F 20.5 °F 25.0 °F 82% 30.16 in - NNW 11.5 mph - N/A   Unknown